Weather History for Salida, CO

Change the Weather History Date:

Monday, May 26, 2014

  Actual Average (KGUC) Record (KGUC)
Temperature  
Mean Temperature 55 °F -  
Max Temperature 73 °F 67 °F 75 °F (2001)
Min Temperature 37 °F 34 °F 28 °F (2002)
Degree Days  
Heating Degree Days 10    
Growing Degree Days 5 (Base 50)    
Moisture  
Dew Point 34 °F    
Average Humidity 54    
Maximum Humidity 88    
Minimum Humidity 17    
Precipitation  
Precipitation 0.00 in - - ()
Sea Level Pressure  
Sea Level Pressure 30.27 in    
Wind  
Wind Speed 5 mph (West)    
Max Wind Speed 16 mph    
Max Gust Speed 28 mph    
Visibility 10 miles    
Events      
Averages and records for this station are not official NWS values.
T = Trace of Precipitation, MM = Missing Value Source: NWS Daily Summary

Daily Weather History Graph

Daily Weather History Graph

Search for Another Location

Airport:

Trip Planner

Search our weather history database for the weather conditions in past years. The results will help you decide how hot, cold, wet, or windy it might be!

Date:

Astronomy

May. 26, 2014 Rise Set
Actual Time 5:44 AM MDT 8:18 PM MDT
Civil Twilight 5:13 AM MDT 8:49 PM MDT
Nautical Twilight 4:35 AM MDT 9:27 PM MDT
Astronomical Twilight 3:53 AM MDT 10:10 PM MDT
Moon 4:26 AM MDT (5/26) 6:25 PM MDT (5/26)
Length of Visible Light 15h 35m
Length of Day
14h 33m
Waning Crescent, 4% of the Moon is Illuminated
May 26
Waning Crescent
May 28
New
Jun 5
First Quarter
Jun 12
Full
Jun 19
Last Quarter

Hourly Weather History & Observations

Time (MDT) Temp. Windchill Dew Point Humidity Pressure Visibility Wind Dir Wind Speed Gust Speed Precip Events Conditions
12:15 AM 45.1 °F 40.3 °F 37.6 °F 75% 30.27 in 10.0 mi West 9.2 mph - N/A   Scattered Clouds
12:35 AM 44.4 °F 40.0 °F 36.9 °F 75% 30.27 in 10.0 mi West 8.1 mph - N/A   Scattered Clouds
12:55 AM 43.7 °F 42.1 °F 36.9 °F 77% 30.27 in 10.0 mi West 3.5 mph - N/A   Scattered Clouds
1:15 AM 42.8 °F 38.6 °F 36.7 °F 79% 30.27 in 10.0 mi WSW 6.9 mph - N/A   Scattered Clouds
1:35 AM 43.0 °F 38.8 °F 36.5 °F 78% 30.26 in 10.0 mi WSW 6.9 mph - N/A   Clear
1:55 AM 43.2 °F 40.5 °F 36.5 °F 77% 30.26 in 10.0 mi West 4.6 mph - N/A   Clear
2:15 AM 41.9 °F 38.2 °F 36.0 °F 79% 30.25 in 10.0 mi WSW 5.8 mph - N/A   Clear
2:35 AM 41.4 °F 39.4 °F 36.0 °F 81% 30.25 in 10.0 mi WNW 3.5 mph - N/A   Clear
3:15 AM 41.0 °F 36.4 °F 36.1 °F 83% 30.27 in 10.0 mi WSW 6.9 mph - N/A   Clear
3:35 AM 41.2 °F 37.3 °F 35.6 °F 81% 30.27 in 10.0 mi West 5.8 mph - N/A   Clear
3:55 AM 40.8 °F 36.9 °F 35.6 °F 82% 30.29 in 10.0 mi WSW 5.8 mph - N/A   Clear
4:15 AM 41.7 °F 38.0 °F 36.0 °F 80% 30.29 in 10.0 mi West 5.8 mph - N/A   Clear
4:35 AM 40.5 °F 36.5 °F 35.6 °F 83% 30.29 in 10.0 mi West 5.8 mph - N/A   Scattered Clouds
4:55 AM 41.4 °F 38.4 °F 35.4 °F 79% 30.29 in 10.0 mi West 4.6 mph - N/A   Scattered Clouds
5:15 AM 39.6 °F - 35.1 °F 84% 30.29 in 10.0 mi Calm Calm - N/A   Clear
5:35 AM 38.8 °F 35.4 °F 34.7 °F 85% 30.29 in 10.0 mi West 4.6 mph - N/A   Clear
5:55 AM 37.8 °F 34.2 °F 34.2 °F 87% 30.29 in 10.0 mi West 4.6 mph - N/A   Clear
6:15 AM 38.8 °F - 35.1 °F 86% 30.30 in 10.0 mi Calm Calm - N/A   Clear
6:35 AM 39.2 °F - 35.8 °F 88% 30.30 in 10.0 mi Calm Calm - N/A   Clear
6:55 AM 42.3 °F 40.5 °F 35.1 °F 76% 30.31 in 10.0 mi WSW 3.5 mph - N/A   Clear
7:15 AM 43.3 °F - 35.2 °F 73% 30.31 in 10.0 mi Calm Calm - N/A   Clear
7:35 AM 44.2 °F - 36.5 °F 74% 30.32 in 10.0 mi Calm Calm - N/A   Clear
7:55 AM 45.7 °F 44.4 °F 36.0 °F 69% 30.31 in 10.0 mi North 3.5 mph - N/A   Clear
8:15 AM 47.1 °F - 36.3 °F 66% 30.31 in 10.0 mi NNW 3.5 mph - N/A   Clear
8:35 AM 48.2 °F - 36.9 °F 65% 30.30 in 10.0 mi Calm Calm - N/A   Clear
8:55 AM 50.9 °F - 36.5 °F 58% 30.30 in 10.0 mi North 5.8 mph - N/A   Clear
9:15 AM 51.4 °F - 36.1 °F 56% 30.30 in 10.0 mi Calm Calm - N/A   Clear
9:35 AM 54.9 °F - 34.7 °F 47% 30.30 in 10.0 mi Calm Calm - N/A   Clear
9:55 AM 56.5 °F - 36.0 °F 46% 30.29 in 10.0 mi SW 3.5 mph - N/A   Clear
10:35 AM 59.7 °F - 33.4 °F 37% 30.28 in 10.0 mi North 3.5 mph - N/A   Clear
11:15 AM 63.1 °F - 32.4 °F 32% 30.27 in 10.0 mi Calm Calm - N/A   Clear
11:35 AM 64.6 °F - 27.0 °F 24% 30.27 in 10.0 mi NNW 5.8 mph - N/A   Clear
11:55 AM 65.7 °F - 27.9 °F 24% 30.26 in 10.0 mi Calm Calm - N/A   Clear
12:15 PM 67.1 °F - 28.6 °F 24% 30.25 in 10.0 mi NW 3.5 mph - N/A   Clear
12:35 PM 69.3 °F - 28.2 °F 22% 30.25 in 10.0 mi North 4.6 mph - N/A   Clear
1:15 PM 68.2 °F - 27.0 °F 21% 30.24 in 10.0 mi North 6.9 mph - N/A   Overcast
1:35 PM 69.4 °F - 26.2 °F 20% 30.24 in 10.0 mi Calm Calm - N/A   Overcast
1:55 PM 68.4 °F - 25.3 °F 20% 30.23 in 10.0 mi WNW 3.5 mph - N/A   Overcast
2:15 PM 69.4 °F - 25.3 °F 19% 30.22 in 10.0 mi North 9.2 mph - N/A   Overcast
2:35 PM 69.3 °F - 25.2 °F 19% 30.22 in 10.0 mi Calm Calm - N/A   Overcast
2:55 PM 68.9 °F - 23.7 °F 18% 30.22 in 10.0 mi Calm Calm - N/A   Overcast
3:15 PM 73.4 °F - 25.7 °F 17% 30.21 in 10.0 mi East 3.5 mph - N/A   Mostly Cloudy
3:35 PM 71.2 °F - 24.4 °F 17% 30.21 in 10.0 mi WNW 6.9 mph - N/A   Scattered Clouds
4:15 PM 71.6 °F - 24.1 °F 17% 30.21 in 10.0 mi NNW 6.9 mph - N/A   Overcast
4:35 PM 72.5 °F - 24.4 °F 17% 30.20 in 10.0 mi North 4.6 mph - N/A   Overcast
5:15 PM 71.4 °F - 24.3 °F 17% 30.20 in 10.0 mi Calm Calm - N/A   Mostly Cloudy
5:35 PM 71.8 °F - 24.3 °F 17% 30.20 in 10.0 mi NNE 3.5 mph - N/A   Scattered Clouds
5:55 PM 69.4 °F - 34.7 °F 28% 30.20 in 10.0 mi East 8.1 mph - N/A   Mostly Cloudy
6:15 PM 66.2 °F - 37.6 °F 35% 30.21 in 10.0 mi ESE 16.1 mph 25.3 mph N/A   Overcast
6:35 PM 64.9 °F - 38.1 °F 37% 30.24 in 10.0 mi East 16.1 mph 24.2 mph N/A   Overcast
6:55 PM 64.6 °F - 32.4 °F 30% 30.24 in 10.0 mi SE 8.1 mph 19.6 mph N/A   Scattered Clouds
7:15 PM 63.7 °F - 35.2 °F 35% 30.24 in 10.0 mi SSE 5.8 mph - N/A   Scattered Clouds
7:35 PM 63.7 °F - 36.1 °F 36% 30.25 in 10.0 mi SE 8.1 mph - N/A   Mostly Cloudy
7:55 PM 63.0 °F - 40.5 °F 44% 30.27 in 10.0 mi ESE 11.5 mph 18.4 mph N/A   Mostly Cloudy
8:15 PM 60.4 °F - 41.0 °F 49% 30.27 in 10.0 mi ESE 12.7 mph 27.6 mph N/A   Scattered Clouds
8:35 PM 58.1 °F - 40.1 °F 51% 30.29 in 10.0 mi ESE 10.4 mph 21.9 mph N/A   Clear
9:15 PM 55.8 °F - 41.9 °F 60% 30.31 in 10.0 mi ESE 9.2 mph 17.3 mph N/A   Clear
9:35 PM 55.2 °F - 42.1 °F 61% 30.33 in 10.0 mi ESE 4.6 mph - N/A   Clear
9:55 PM 54.5 °F - 42.3 °F 63% 30.34 in 10.0 mi ESE 6.9 mph - N/A   Clear
10:15 PM 53.6 °F - 41.9 °F 65% 30.35 in 10.0 mi South 5.8 mph - N/A   Clear
10:35 PM 51.4 °F - 42.1 °F 70% 30.35 in 10.0 mi SSW 8.1 mph - N/A   Clear
10:55 PM 51.8 °F - 41.7 °F 68% 30.35 in 10.0 mi Calm Calm - N/A   Clear
11:15 PM 49.1 °F - 41.5 °F 75% 30.35 in 10.0 mi Calm Calm - N/A   Clear
11:35 PM 48.0 °F - 41.4 °F 78% 30.35 in 10.0 mi WSW 5.8 mph - N/A   Clear
11:55 PM 49.1 °F - 41.5 °F 75% 30.36 in 10.0 mi West 4.6 mph - N/A   Clear